Content
SEND FEEDBACK

Daily
Averages
Monthly
Summary
United States of America

NEW YORK - CENTRAL PARK, NEW YORK


Home > North America > United States > New York
Elevation: 14 feet     Latitude: 40 47N     Longitude: 073 58W

WEATHER
 
SELECT A DAY
Number of Records: 148,086;   Date Range: 11/1/95 - 7/26/14
 
SHARE

PRINT THIS DATA

[ ← Previous Day ]
WEATHER ALMANAC - JUNE 19, 2013
[ Next Day → ]
[ °C ]   °F
Weather ElementAverageHighLow
Temperature66.9 °F75 °F (1:51 pm)59 °F (5:51 am)
Dewpoint52.7 °F63 °F (12:51 am)43 °F (1:51 pm)
Humidity64.3 %96 % (12:51 am)32 % (1:51 pm)
Barometer30.01 in30.17 in (11:51 pm)29.88 in (12:51 am)
Wind Speed5.5 mph9.2 mph (2:20 am)
Wind Gust17.3 mph (2:20 am)
Weather ElementAverage
Visibility9.7 mi
Wind DirectionNNE (31.4 °)

Weather ElementTotal
Precipitation0.02 in
Cooling Degree Days2 (Base 65)
Growing Degree Days17 (Base 50)
Averaged from 28 records on June 19, 2013
WEATHER CONDITIONS BREAKOUT
WIND DIRECTION BREAKOUT
WEATHER BY HOUR - JUNE 19, 2013
[ °C ]   °F
Local TimeTemperatureDewpointHumidityBarometerVisibilityWind DirectionWind SpeedGust SpeedPrecipitationEventsConditions
12:51 AM64.0 °F63.0 °F96 %29.88 in4.0 miVariable4.6 mph0.01 inOvercast
1:51 AM64.0 °F62.1 °F93 %29.89 in7.0 miNE (50°)8.1 mph0.01 inOvercast
2:20 AM63.0 °F60.1 °F90 %29.92 in10.0 miNE (40°)9.2 mph17.3 mphOvercast
2:35 AM63.0 °F60.1 °F90 %29.92 in10.0 miVariable5.8 mph17.3 mphOvercast
2:51 AM63.0 °F59.0 °F87 %29.90 in10.0 miNE (40°)8.1 mph17.3 mphOvercast
3:51 AM62.1 °F57.9 °F86 %29.91 in10.0 miVariable4.6 mphScattered Clouds
4:12 AM62.1 °F59.0 °F90 %29.94 in10.0 miVariable3.5 mphMostly Cloudy
4:36 AM61.0 °F57.9 °F90 %29.95 in10.0 miVariable5.8 mphMostly Cloudy
4:51 AM61.0 °F57.0 °F87 %29.92 in10.0 miVariable3.5 mphMostly Cloudy
5:51 AM59.0 °F55.9 °F90 %29.94 in10.0 miVariable3.5 mphClear
6:51 AM60.1 °F55.0 °F83 %29.95 in10.0 miVariable6.9 mphClear
7:51 AM62.1 °F53.1 °F72 %30.00 in10.0 miNNE (30°)9.2 mphClear
8:51 AM64.0 °F53.1 °F67 %30.02 in10.0 miNNE (20°)8.1 mphClear
9:51 AM66.0 °F53.1 °F63 %30.04 in10.0 miNNE (20°)8.1 mphClear
10:51 AM68.0 °F51.1 °F55 %30.05 in10.0 miNorth (10°)8.1 mphClear
11:51 AM72.0 °F50.0 °F46 %30.05 in10.0 miNNE (20°)8.1 mphClear
12:51 PM73.9 °F48.9 °F41 %30.06 in10.0 miVariable5.8 mphClear
1:51 PM75.0 °F43.0 °F32 %30.06 in10.0 miNorth (350°)8.1 mphClear
2:51 PM73.9 °F44.1 °F34 %30.06 in10.0 miVariable6.9 mphClear
3:51 PM75.0 °F46.0 °F36 %30.06 in10.0 miENE (60°)8.1 mphClear
4:51 PM75.0 °F45.0 °F34 %30.06 in10.0 miCalmClear
5:51 PM73.9 °F45.0 °F35 %30.06 in10.0 miCalmClear
6:51 PM73.0 °F44.1 °F35 %30.07 in10.0 miCalmClear
7:51 PM71.1 °F45.0 °F39 %30.08 in10.0 miWSW (240°)4.6 mphClear
8:51 PM69.1 °F52.0 °F54 %30.10 in10.0 miVariable3.5 mphScattered Clouds
9:51 PM68.0 °F52.0 °F56 %30.12 in10.0 miCalmClear
10:51 PM66.9 °F51.1 °F57 %30.15 in10.0 miVariable5.8 mphClear
11:51 PM64.9 °F51.1 °F61 %30.17 in10.0 miVariable4.6 mphClear
Hourly data recorded from KNYC, located miles away from New York - Central Park, New York







STORIES FROM OUR PARTNERS